AirNav   Air Wisconsin Up To $57,000 Bonus
 
 1086 users online  

MU94 Galmey Heliport
Galmey, Missouri, USA

GOING TO GALMEY?


FAA INFORMATION EFFECTIVE 03 DECEMBER 2020

Location

FAA Identifier: MU94
Lat/Long: 37-53-35.6900N 093-21-43.7000W
37-53.594833N 093-21.728333W
37.8932472,-93.3621389
(estimated)
Elevation: 968 ft. / 295 m (estimated)
Variation: 04E (1990)
From city: 7 miles S of GALMEY, MO
Time zone: UTC -6 (UTC -5 during Daylight Saving Time)
Zip code: 65779

Heliport Operations

Heliport use: Private use, MEDICAL USE.
Activation date: 10/1991
Control tower: no
ARTCC: KANSAS CITY CENTER
FSS: COLUMBIA FLIGHT SERVICE STATION
Attendance: CONTINUOUS
Wind indicator: lighted
Segmented circle: no
Lights: FOR PERIMETER LGTS CALL 417-282-5365.

Nearby radio navigation aids

VOR radial/distance  VOR name  Freq  Var
SGFr354/32.3SPRINGFIELD VORTAC116.9004E
SHYr256/37.0SUNSHINE VOR/DME108.4000E

 
NDB name  Hdg/Dist  Freq  Var  ID
GOLDEN VALLEY150/31.838801EGLY --. .-.. -.--

Heliport Services

Runway Information

Helipad H1

Dimensions: 40 x 40 ft. / 12 x 12 m
Surface: concrete
Runway edge lights: PERI
Latitude: 37-53.594833N
Longitude: 093-21.728333W
Elevation: 968.0 ft.
Traffic pattern: leftleft

Heliport Ownership and Management from official FAA records

Ownership: Publicly-owned
Owner: GALMEY FIRE DEPARTMENT
21208 HWY 254
WHEATLAND, MO 65779
Phone (417) 282-5365
Manager: WILBER ELLIS, BOARD DIRECTOR
P.O. BOX 276
WHEATLAND, MO 65779
Phone (417) 282-5365

Additional Remarks

OWNER DESIRES HELIPAD NOT BE CHARTED.
FOR CD CTC SPRINGFIELD APCH AT 417-868-5620/5619.

Instrument Procedures

There are no published instrument procedures at MU94.

Some nearby airports with instrument procedures:

M17 - Bolivar Municipal Airport (18 nm S)
MO3 - Stockton Municipal Airport (26 nm SW)
KRAW - Warsaw Municipal Airport (27 nm N)
KGLY - Clinton Regional Airport (31 nm NW)
KOZS - Camdenton Memorial-Lake Regional Airport (32 nm E)
 
Loc | Ops | Rwys | IFR | FBO | Links
Com | Nav | Svcs | Stats | Notes
Area around MU94 (Galmey Heliport)
 
Road maps at: MapQuest Bing Google
 
Aerial photo
No photo
 
Sectional chart

 
Airport distance calculator
Flying to Galmey Heliport? Find the distance to fly.

From to MU94

Sunrise and sunset
Times for 03-Dec-2020
 Local
(UTC-6)
 Zulu
(UTC)
Morning civil twilight06:4512:45
Sunrise07:1413:14
Sunset16:5322:53
Evening civil twilight17:2223:22

Current date and time
Zulu (UTC)  04-Dec-2020 00:40:36
Local (UTC-6)  03-Dec-2020 18:40:36
 
METAR
KRAW 
27nm N 
040015Z AUTO 00000KT 10SM OVC019 04/03 A3016 RMK AO2 T00350027
KGLY 
32nm NW 
040015Z AUTO 00000KT 10SM OVC023 04/03 A3016 RMK AO2
KOZS 
32nm E 
040015Z AUTO 00000KT 10SM OVC022 04/02 A3015 RMK AO2
TAF
KSGF 
40nm S 
031720Z 0318/0418 VRB04KT P6SM BKN015 OVC025 FM040000 VRB04KT P6SM OVC007 FM040900 25005KT 4SM BR OVC005 TEMPO 0409/0412 2SM BR FM041600 25010KT P6SM SCT250
NOTAMs
Click for the latest NOTAMs
NOTAMs are issued by the DoD/FAA and will open in a separate window not controlled by AirNav.

 

 
 

Would you like to see your business listed on this page?

 If your business provides an interesting product or service to pilots, flight crews, aircraft, or users of the Galmey Heliport, you should consider listing it here.  To start the listing process, click on the button below
 
Add a business
 

Other Pages about Galmey Heliport

Update a link
 
Copyright © AirNav, LLC. All rights reserved. Privacy Policy  Contact